QPF
0.00 0.00 0.00 0.00 0.00 0.00 0.00 0.00 0.00 0.00 0.00 0.00 0.00 0.00 0.00 0.00 0.01 0.02 0.03 0.05 0.03 0.05 0.06 0.07 0.06 0.07 0.09 0.04 0.03 0.02 0.00 0.00
0.00 0.00 0.00 0.00 0.00 0.00 0.00 0.00 0.00 0.00 0.00 0.00 0.00 0.00 0.00 0.00 0.00 0.01 0.02 0.02 0.04 0.05 0.04 0.06 0.17 0.12 0.10 0.03 0.02 0.01 0.01 0.01
0.00 0.00 0.00 0.00 0.00 0.00 0.00 0.00 0.00 0.00 0.00 0.00 0.00 0.00 0.00 0.00 0.00 0.01 0.01 0.03 0.09 0.17 0.07 0.04 0.14 0.14 0.13 0.03 0.01 0.01 0.01 0.00
0.00 0.00 0.00 0.00 0.00 0.00 0.00 0.00 0.00 0.00 0.00 0.00 0.00 0.01 0.00 0.01 0.01 0.03 0.05 0.05 0.10 0.25 0.19 0.12 0.08 0.14 0.09 0.02 0.01 0.00 0.00 0.00
0.00 0.00 0.00 0.00 0.00 0.00 0.00 0.00 0.00 0.00 0.00 0.00 0.00 0.00 0.01 0.00 0.01 0.04 0.15 0.31 0.24 0.19 0.25 0.19 0.10 0.02 0.03 0.01 0.00 0.00 0.00 0.00
0.00 0.00 0.00 0.00 0.00 0.00 0.00 0.00 0.00 0.00 0.00 0.00 0.00 0.00 0.00 0.01 0.01 0.07 0.13 0.31 0.33 0.22 0.25 0.22 0.11 0.03 0.01 0.00 0.00 0.00 0.00 0.00
0.00 0.00 0.00 0.00 0.00 0.00 0.00 0.00 0.00 0.00 0.00 0.00 0.00 0.00 0.01 0.01 0.01 0.05 0.17 0.22 0.24 0.21 0.21 0.19 0.13 0.04 0.01 0.00 0.00 0.00 0.00 0.00
0.00 0.00 0.00 0.00 0.00 0.00 0.00 0.00 0.00 0.00 0.00 0.00 0.00 0.00 0.01 0.01 0.00 0.01 0.08 0.19 0.15 0.13 0.16 0.15 0.14 0.05 0.01 0.01 0.00 0.00 0.00 0.00
0.00 0.00 0.00 0.00 0.00 0.00 0.00 0.00 0.00 0.00 0.00 0.00 0.00 0.00 0.01 0.01 0.01 0.05 0.14 0.13 0.14 0.08 0.15 0.11 0.08 0.03 0.01 0.01 0.00 0.00 0.00 0.00
0.00 0.00 0.00 0.00 0.00 0.00 0.00 0.00 0.00 0.00 0.00 0.00 0.00 0.00 0.00 0.00 0.00 0.01 0.15 0.17 0.11 0.10 0.17 0.09 0.06 0.03 0.01 0.00 0.00 0.00 0.00 0.00
0.00 0.00 0.00 0.00 0.00 0.00 0.00 0.00 0.00 0.00 0.00 0.00 0.00 0.00 0.00 0.00 0.00 0.00 0.07 0.17 0.16 0.16 0.24 0.11 0.07 0.06 0.04 0.02 0.02 0.01 0.00 0.00
0.00 0.00 0.00 0.00 0.00 0.00 0.00 0.00 0.00 0.00 0.00 0.00 0.00 0.00 0.00 0.00 0.00 0.00 0.01 0.06 0.17 0.12 0.17 0.07 0.03 0.04 0.04 0.02 0.01 0.00 0.00 0.00
0.00 0.00 0.00 0.00 0.00 0.00 0.01 0.01 0.01 0.00 0.00 0.00 0.00 0.00 0.00 0.00 0.00 0.00 0.00 0.01 0.02 0.04 0.09 0.07 0.07 0.08 0.07 0.02 0.03 0.01 0.00 0.00
0.01 0.01 0.01 0.00 0.01 0.01 0.01 0.02 0.01 0.00 0.00 0.00 0.00 0.00 0.00 0.00 0.00 0.00 0.00 0.00 0.01 0.01 0.02 0.03 0.05 0.05 0.12 0.09 0.03 0.01 0.00 0.00
0.01 0.03 0.02 0.01 0.01 0.02 0.04 0.02 0.00 0.00 0.00 0.00 0.00 0.00 0.00 0.00 0.00 0.00 0.00 0.00 0.00 0.00 0.00 0.00 0.01 0.01 0.01 0.04 0.03 0.01 0.00 0.00
0.01 0.03 0.04 0.04 0.03 0.03 0.03 0.01 0.00 0.00 0.00 0.00 0.00 0.00 0.01 0.00 0.00 0.00 0.00 0.00 0.00 0.00 0.00 0.01 0.01 0.00 0.00 0.00 0.00 0.00 0.00 0.00
0.01 0.03 0.04 0.05 0.05 0.09 0.06 0.01 0.00 0.00 0.00 0.00 0.01 0.01 0.01 0.02 0.01 0.01 0.01 0.00 0.00 0.00 0.00 0.00 0.00 0.00 0.00 0.00 0.00 0.00 0.00 0.00
0.03 0.03 0.05 0.05 0.07 0.05 0.02 0.01 0.01 0.00 0.00 0.00 0.01 0.00 0.01 0.00 0.01 0.01 0.01 0.01 0.01 0.00 0.00 0.00 0.00 0.00 0.00 0.00 0.00 0.00 0.00 0.00
0.06 0.03 0.04 0.05 0.04 0.03 0.01 0.01 0.01 0.01 0.00 0.00 0.01 0.01 0.01 0.01 0.01 0.01 0.01 0.01 0.01 0.01 0.01 0.02 0.01 0.01 0.01 0.00 0.00 0.00 0.00 0.00
MSLP
999.62 999.78 1000.08 1000.63 1001.34 1002.30 1003.18 1004.00 1005.42 1006.16 1007.01 1007.85 1008.35 1009.05 1009.38 1009.76 1010.24 1010.68 1011.21 1011.61 1012.13 1012.68 1013.14 1013.72 1014.22 1015.27 1016.01 1016.53 1016.65 1016.84 1016.97 1017.69
998.96 999.17 999.60 1000.39 1001.04 1001.93 1002.56 1003.39 1004.83 1005.60 1006.25 1006.97 1007.54 1008.15 1008.71 1009.29 1009.80 1010.19 1010.64 1011.06 1011.47 1012.01 1012.52 1013.16 1013.87 1014.70 1015.37 1015.99 1016.24 1016.41 1016.77 1017.57
998.26 998.50 998.98 999.96 1000.37 1001.31 1001.99 1002.76 1004.32 1004.74 1005.11 1005.78 1006.73 1007.57 1008.02 1008.59 1009.26 1009.70 1009.95 1010.41 1010.77 1011.35 1012.00 1012.71 1013.24 1014.31 1015.04 1015.36 1015.83 1016.01 1016.46 1017.63
997.52 997.76 998.15 999.31 999.99 1000.76 1001.44 1002.18 1003.66 1004.09 1004.48 1005.36 1006.43 1007.30 1007.76 1008.25 1008.72 1009.10 1009.38 1009.79 1010.28 1010.88 1011.41 1012.44 1013.10 1013.69 1014.06 1014.84 1015.34 1015.54 1016.26 1017.43
997.13 997.08 997.11 998.32 999.37 1000.28 1001.01 1001.83 1002.68 1003.72 1004.23 1004.71 1005.51 1005.93 1006.85 1007.43 1007.93 1008.47 1008.95 1009.29 1009.78 1010.49 1010.92 1011.85 1012.58 1013.42 1013.94 1014.44 1015.01 1015.31 1015.81 1016.68
996.47 996.43 996.72 997.51 998.97 999.98 1001.02 1001.54 1002.27 1003.13 1003.93 1004.23 1005.19 1005.57 1006.14 1006.26 1007.16 1007.90 1008.42 1008.72 1009.22 1009.99 1010.58 1011.33 1012.17 1013.08 1013.67 1014.15 1014.65 1014.96 1015.66 1016.13
996.15 996.08 996.41 997.49 998.90 1000.31 1001.01 1001.34 1002.01 1002.81 1003.58 1004.05 1004.52 1005.08 1005.88 1006.21 1006.98 1007.59 1008.11 1008.43 1008.62 1009.25 1010.13 1010.77 1011.58 1012.50 1013.27 1013.83 1014.41 1014.64 1015.37 1015.96
996.64 996.42 996.80 997.72 999.35 1000.58 1001.18 1001.21 1001.76 1002.85 1003.46 1003.96 1004.50 1005.12 1005.54 1005.93 1006.85 1007.37 1007.90 1008.43 1008.64 1009.22 1009.65 1010.28 1011.09 1012.03 1012.86 1013.66 1014.22 1014.75 1015.36 1015.64
997.00 996.92 997.24 998.01 999.91 1000.86 1001.46 1001.57 1001.79 1002.97 1003.50 1004.05 1004.63 1004.93 1005.40 1005.89 1006.77 1007.21 1007.68 1008.13 1008.59 1009.34 1009.90 1010.23 1011.24 1011.67 1012.77 1013.61 1014.34 1014.97 1015.45 1015.75
997.33 996.96 997.42 998.09 999.84 1001.00 1001.72 1001.71 1001.89 1002.75 1003.41 1004.11 1004.64 1005.13 1005.54 1006.15 1006.80 1007.21 1007.65 1008.05 1008.59 1009.46 1009.90 1010.36 1011.19 1011.84 1012.74 1013.65 1014.31 1014.94 1015.42 1015.70
998.13 997.36 997.59 998.34 999.91 1001.21 1001.91 1001.75 1002.07 1003.04 1003.46 1004.14 1004.68 1005.14 1005.69 1006.09 1006.71 1007.22 1007.54 1008.12 1008.58 1009.33 1009.95 1010.74 1011.25 1012.00 1012.75 1013.52 1014.25 1014.97 1015.38 1015.65
999.44 998.67 998.31 998.93 999.96 1001.44 1002.04 1001.93 1002.42 1003.08 1003.61 1004.13 1004.77 1005.25 1005.73 1006.33 1006.77 1007.26 1007.64 1008.01 1008.59 1009.33 1010.05 1010.62 1011.40 1012.15 1012.84 1013.49 1014.28 1014.74 1015.09 1015.41
1000.93 1000.23 999.74 999.95 1000.85 1001.75 1002.37 1002.52 1002.86 1003.25 1003.71 1004.24 1004.90 1005.35 1005.70 1006.30 1006.68 1007.19 1007.74 1008.02 1008.48 1009.01 1009.57 1010.36 1011.19 1011.92 1012.58 1013.27 1013.69 1014.08 1014.49 1014.77
1002.90 1001.75 1001.39 1001.47 1001.72 1002.23 1002.66 1002.86 1003.11 1003.35 1003.85 1004.16 1004.96 1005.28 1005.61 1006.10 1006.50 1006.89 1007.32 1007.87 1008.50 1009.09 1009.67 1010.21 1010.81 1011.56 1012.17 1012.71 1013.16 1013.55 1013.78 1014.08
1004.66 1003.97 1002.89 1002.19 1002.17 1002.83 1002.99 1003.10 1003.36 1003.67 1004.03 1004.17 1004.78 1005.17 1005.60 1006.06 1006.59 1007.06 1007.46 1007.68 1008.03 1008.53 1009.27 1009.94 1010.58 1011.05 1011.62 1012.21 1012.71 1012.98 1013.37 1013.44
1006.16 1005.05 1004.12 1004.58 1003.57 1003.65 1003.43 1002.94 1003.13 1003.56 1003.93 1004.37 1004.92 1005.38 1005.59 1006.06 1006.57 1007.08 1007.56 1007.96 1008.15 1008.29 1008.79 1009.35 1009.82 1010.49 1011.08 1011.61 1011.96 1012.28 1012.56 1012.52
1007.55 1006.98 1007.28 1006.88 1006.13 1005.06 1004.35 1004.02 1003.76 1003.68 1003.82 1004.70 1004.93 1005.33 1005.65 1006.00 1006.50 1006.73 1007.33 1007.87 1008.26 1008.73 1009.03 1009.18 1009.55 1010.17 1011.37 1011.29 1011.08 1011.32 1011.68 1011.95
1009.29 1009.44 1009.13 1008.78 1007.90 1007.07 1006.41 1006.18 1005.92 1005.98 1006.17 1006.53 1006.69 1006.76 1007.02 1007.25 1007.13 1007.18 1007.58 1007.87 1008.01 1008.77 1009.26 1009.54 1011.14 1011.94 1012.39 1012.16 1011.90 1011.73 1011.72 1012.06
1010.62 1011.07 1010.68 1010.13 1009.34 1008.65 1008.35 1007.97 1007.85 1007.86 1008.03 1008.20 1008.30 1008.29 1008.45 1008.66 1008.77 1009.03 1009.46 1009.83 1010.12 1010.67 1011.38 1011.97 1012.65 1013.32 1013.18 1012.75 1012.44 1012.43 1012.42 1013.60
Thickness
5709 5711 5711 5706 5701 5695 5688 5684 5676 5671 5664 5658 5653 5647 5643 5638 5635 5631 5626 5623 5620 5618 5617 5615 5616 5612 5610 5610 5614 5617 5618 5615
5707 5708 5705 5699 5695 5688 5685 5682 5674 5667 5662 5656 5651 5646 5642 5636 5632 5629 5626 5622 5619 5616 5615 5614 5613 5611 5611 5611 5613 5615 5614 5614
5701 5703 5701 5692 5690 5685 5683 5682 5669 5668 5666 5661 5653 5646 5641 5636 5630 5627 5625 5622 5619 5615 5614 5613 5614 5609 5605 5609 5610 5613 5613 5609
5695 5696 5696 5688 5683 5681 5680 5679 5668 5667 5665 5659 5650 5642 5637 5632 5628 5625 5623 5620 5616 5613 5613 5611 5610 5608 5609 5609 5611 5613 5609 5605
5690 5692 5695 5688 5682 5680 5678 5675 5671 5663 5662 5657 5651 5647 5637 5632 5629 5625 5619 5616 5612 5609 5609 5609 5609 5606 5606 5608 5610 5612 5611 5605
5686 5689 5691 5689 5680 5676 5672 5672 5668 5663 5659 5657 5647 5644 5641 5639 5630 5622 5616 5612 5612 5608 5608 5607 5606 5603 5605 5608 5608 5610 5608 5608
5682 5685 5687 5681 5675 5668 5667 5668 5665 5661 5656 5653 5649 5645 5637 5634 5625 5618 5613 5610 5611 5610 5608 5607 5607 5604 5603 5605 5605 5608 5607 5606
5667 5674 5675 5674 5665 5660 5659 5663 5661 5655 5652 5648 5645 5640 5636 5633 5622 5616 5610 5605 5607 5606 5606 5605 5605 5604 5604 5602 5602 5603 5603 5605
5660 5666 5668 5668 5655 5653 5651 5655 5657 5650 5647 5643 5640 5638 5634 5629 5620 5615 5609 5605 5604 5599 5596 5600 5598 5603 5600 5598 5597 5597 5598 5598
5654 5663 5664 5666 5654 5648 5645 5650 5652 5649 5645 5640 5637 5634 5629 5624 5617 5610 5606 5603 5600 5594 5594 5599 5598 5599 5597 5595 5594 5594 5594 5595
5645 5657 5661 5662 5653 5643 5641 5647 5647 5642 5641 5637 5634 5630 5626 5623 5615 5608 5605 5599 5598 5594 5593 5595 5597 5595 5594 5592 5592 5590 5590 5589
5631 5644 5653 5653 5648 5636 5635 5641 5641 5638 5636 5635 5630 5626 5623 5618 5613 5607 5602 5601 5598 5596 5593 5595 5592 5591 5590 5590 5586 5585 5585 5584
5615 5625 5635 5639 5634 5629 5628 5632 5632 5634 5632 5630 5626 5622 5620 5614 5611 5607 5601 5601 5600 5598 5597 5595 5592 5590 5587 5586 5585 5585 5584 5584
5590 5611 5617 5622 5623 5622 5623 5625 5626 5629 5626 5628 5623 5621 5619 5614 5611 5609 5607 5603 5600 5597 5596 5594 5593 5591 5588 5587 5587 5585 5585 5586
5572 5582 5601 5613 5617 5615 5616 5619 5621 5622 5621 5625 5621 5619 5616 5612 5608 5605 5604 5604 5603 5602 5598 5595 5592 5592 5591 5589 5586 5587 5586 5587
5552 5566 5579 5583 5602 5605 5609 5619 5621 5621 5620 5620 5616 5614 5612 5610 5606 5602 5600 5599 5600 5602 5600 5598 5597 5594 5592 5590 5589 5589 5587 5589
5535 5546 5548 5557 5569 5587 5596 5606 5613 5617 5619 5614 5614 5612 5611 5610 5605 5604 5600 5598 5596 5594 5594 5595 5595 5594 5580 5583 5590 5590 5588 5586
5515 5521 5529 5537 5549 5561 5572 5579 5584 5586 5587 5587 5588 5591 5591 5590 5595 5597 5598 5597 5596 5591 5589 5589 5577 5572 5567 5570 5573 5581 5582 5578
5501 5503 5513 5521 5532 5543 5549 5557 5561 5563 5564 5566 5568 5571 5572 5573 5574 5574 5572 5572 5570 5568 5563 5561 5558 5554 5557 5561 5564 5568 5568 5557